Regional Weather Roundup
Issued by NWS Burlington, VT

Current Version | Previous Version | Graphics & Text | Print | Product List | Glossary Off
Versions: 1 2 3 4 5 6 7 8 9 10 11 12 13 14 15 16 17 18 19 20 21 22 23 24 25 26 27 28 29 30 31 32 33 34 35 36 37 38 39 40 41 42 43 44 45 46 47 48 49 50

000
ASUS41 KBTV 050310
RWRBTV
VERMONT REGIONAL WEATHER ROUNDUP
NATIONAL WEATHER SERVICE BURLINGTON VT
1000 PM EST WED MAR 04 2015

NOTE: "FAIR" INDICATES FEW OR NO CLOUDS BELOW 12,000 FEET WITH NO
SIGNIFICANT WEATHER AND/OR OBSTRUCTIONS TO VISIBILITY.

* THESE REPORTS ARE NOT UNDER NWS QUALITY CONTROL AND/OR DO NOT
  REPORT WEATHER SUCH AS PRECIPITATION AND FOG.

VTZ001>019-050400-
_____VERMONT_____


CITY           SKY/WX    TMP DP  RH WIND       PRES   REMARKS
BURLINGTON     CLOUDY    33  16  49 W9        29.83R
MONTPELIER     CLOUDY    30  14  51 W9        29.81R
MORRISVILLE    CLOUDY    32  13  45 SW8G16    29.81R
ST. JOHNSBURY*   N/A     33  17  51 MISG      29.77R
MIDDLEBURY*    CLOUDY    33  19  55 SW3       29.86R
RUTLAND*       CLOUDY    32  18  55 W17       29.84R
SPRINGFIELD    CLOUDY    34  19  54 S6        29.82R
HIGHGATE*      CLOUDY    31  16  54 W7G16     29.83R
BENNINGTON     CLOUDY    33  22  63 W7        29.89R
SUTTON*          N/A     28 N/A N/A MISG        N/A

_____LAKE CHAMPLAIN_____


CITY           SKY/WX    TMP DP  RH WIND       PRES   REMARKS

$$

NYZ007-026>031-035-052-083-050400-
_____NORTHERN NEW YORK_____


CITY           SKY/WX    TMP DP  RH WIND       PRES   REMARKS
PLATTSBURGH    CLOUDY    32  13  45 VRB7G20   29.83R
SARANAC LAKE   CLOUDY    24  16  71 W14G23    29.77R WCI  12
MASSENA        CLOUDY    26   8  46 W21G28    29.90R WCI  12
OGDENSBURG*    CLEAR     25   9  50 W16G24    29.94R WCI  12
POTSDAM*       CLEAR     25  10  54 W21G29    29.92R WCI  10
WATERTOWN      CLOUDY    27  14  58 W8        29.97R
FT DRUM        CLOUDY    24  11  58 NW12      29.93R WCI  13
ALBANY         CLOUDY    35  22  58 NW13      29.92R
GLENS FALLS    CLOUDY    34  20  56 VRB5      29.89R

$$
NHZ002-005-011-050400-
_____NEW HAMPSHIRE_____


CITY           SKY/WX    TMP DP  RH WIND       PRES   REMARKS
LEBANON        CLOUDY    35  19  52 W3        29.80R
KEENE          CLOUDY    36  27  69 CALM      29.84R
MT WASHINGTON  BLWGSNOW   9   9 100 W69G78      N/A  VSB 0   WCI -22
PLYMOUTH       FAIR      36  25  64 W12G21    29.78R
WHITEFIELD     CLOUDY    32  17  54 SW9       29.74R

$$

_____REGIONAL QUEBEC LOCATIONS_____


CITY           SKY/WX    TMP DP  RH WIND       PRES   REMARKS
MONTREAL       MOCLDY    28   9  43 W20G28    29.82R WCI  15
QUEBEC CITY    MOCLDY    23   7  50 W14G20    29.69R WCI  11
SHERBROOKE     FLURRIES  30  18  59 W18G35    29.71S WCI  18

_____REGIONAL ONTARIO LOCATIONS_____


CITY           SKY/WX    TMP DP  RH WIND       PRES   REMARKS
OTTAWA         MOCLDY    19   3  49 W20       29.89R WCI   4

______KEY______
VSB  - VISIBILITY IN MILES
WCI  - WIND CHILL INDEX
HX   - HEAT INDEX
$$



USA.gov is the U.S. government's official web portal to all federal, state and local government web resources and services.